179  
NZUS99 KTBW 080411  
RWRTPA  
FLORIDA REGIONAL WEATHER ROUNDUP  
NATIONAL WEATHER SERVICE TAMPA BAY RUSKIN FL  
1100 PM EST TUE FEB 07 2023  
 
NOTE: "FAIR" INDICATES FEW OR NO CLOUDS BELOW 12,000 FEET WITH NO  
SIGNIFICANT WEATHER AND/OR S TO VISIBILITY
.  
 
 
STATION/POSITION
 
 
 
FLZ042-048>051-055-056-060-061-080500-  
EXTRA STATIONS  
 
CITY SKY/WX TMP DP RH WIND PRES REMARKS
 
EVERGLADES CTY NOT AVBL  
CRYSTAL RIVER FAIR 63 54 72 E5 30.28R  
SEBRING FAIR 59 57 92 NE3 30.30S  
EGLIN AFB CLOUDY 65 55 69 SE7 30.22F  
CANAVERAL MOCLDY 65 57 76 S5 30.26S  
 

 
FLZ001>010-012>015-080500-  
PANHANDLE FLORIDA  
 
CITY SKY/WX TMP DP RH WIND PRES REMARKS
 
PENSACOLA CLOUDY 67 62 84 E12 30.20F  
PENSACOLA NAS CLOUDY 67 64 90 E8 30.20S  
MILTON NAS CLOUDY 64 57 78 SE7 30.22F  
CRESTVIEW CLOUDY 64 56 75 SE3 30.24F  
VALPARAISO MOCLDY 64 58 80 SE10 30.19F  
MARY ESTHER MOCLDY 65 48 53 E9 30.20F  
PANAMA CITY CLOUDY 61 54 77 NE3 30.24S  
TYNDALL AFB MOCLDY 61 53 73 CALM 30.23S  
APALACHICOLA CLEAR 62 59 90 E5 30.24S  
 
STATION/POSITION
 
 
29.2N 88.2W  
28.8N 86.0W  
28.5N 84.5W  
 

 
FLZ011-016>039-080500-  
NORTH FLORIDA  
 
CITY SKY/WX TMP DP RH WIND PRES REMARKS
 
MARIANNA MOCLDY 58 51 78 SE3 30.25F  
TALLAHASSEE PTCLDY 58 51 78 CALM 30.26F HAZE  
CROSS CITY CLOUDY 59 52 77 CALM 30.28S  
GAINESVILLE CLEAR 58 53 84 NE5 30.31S  
MAYPORT NAS MOCLDY 65 58 78 SE6 30.31S  
JACKSONVILLE PTCLDY 56 54 93 CALM 30.30S  
JAX NAS PTCLDY 60 57 89 E3 30.31S  
JAX CRAIG CLEAR 56 54 93 CALM 30.31S  
ST AUGUSTINE PTCLDY 59 59 100 CALM 30.32S  
 
STATION/POSITION
 
 
KEATON BEACH  
31.4N 80.9W  
ST AUGUSTINE  
 

 
FLZ040-043>046-052-053-057-058-063-080500-  
CENTRAL FLORIDA  
 
CITY SKY/WX TMP DP RH WIND PRES REMARKS
 
OCALA CLEAR 62 55 77 E3 30.29S  
LEESBURG CLEAR 65 57 75 SE9 30.29S  
SANFORD CLEAR 59 57 93 SE5 30.29F  
ORLANDO EXEC CLEAR 60 53 77 E6 30.29F  
ORLANDO INTL PTCLDY 63 56 78 E6 30.29S  
KISSIMMEE CLEAR 63 57 81 E3 30.30F  
WINTER HAVEN CLEAR 64 56 75 E7 30.29F  
LAKELAND INTL CLEAR 64 56 76 E8 30.28F  
 

 
FLZ041-047-054-059-064-080500-  
EAST CENTRAL FLORIDA  
 
CITY SKY/WX TMP DP RH WIND PRES REMARKS
 
DAYTONA BEACH CLEAR 59 55 87 CALM 30.30S  
JFK SPACE CTR PTCLDY 55 49 78 CALM 30.26F  
PATRICK AFB CLEAR 67 59 73 SE5 30.26S  
MELBOURNE PTCLDY 67 56 67 SE3 30.28S  
VERO BEACH MOCLDY 68 57 68 SE6 30.29R  
FT PIERCE MOCLDY 67 56 67 E6 30.27S  
STUART PTCLDY 71 57 61 E9 30.28F  
 
STATION/POSITION
 
 
28.9N 78.5W  
 

 
FLZ042-048>051-055-056-060-061-080500-  
WEST CENTRAL FLORIDA  
 
CITY SKY/WX TMP DP RH WIND PRES REMARKS
 
BROOKSVILLE CLEAR 65 57 75 SE7 30.28R  
TAMPA PTCLDY 68 56 65 SE7 30.27S  
MACDILL AFB CLEAR 65 56 70 E8 30.22S  
ST PETERSBURG CLEAR 68 57 68 SE12 30.26S  
ST PET-WHITTED CLEAR 68 58 70 SE15 30.25S  
 
STATION/POSITION
 
 
CEDAR KEY  
28.5N 84.5W  
VENICE  
 

 
FLZ062-065-066-069-070-075>078-080500-  
SOUTHWEST FLORIDA AND KEYS  
 
CITY SKY/WX TMP DP RH WIND PRES REMARKS
 
PUNTA GORDA CLEAR 64 58 80 E7 30.28S  
FT MYERS CLEAR 67 56 67 E8 30.25S  
SOUTHWEST INTL CLEAR 64 56 75 E9 30.26S  
NAPLES CLEAR 68 58 70 E8 30.25S  
MARATHON CLEAR 75 65 70 E8 30.20F  
KEY WEST NAS CLEAR 80 67 64 NE10 30.21S  
KEY WEST INTL N/A N/A N/A N/A MISG 30.21F  
 
STATION/POSITION
 
 
VENICE  
SOMBRERO KEY  
LONG KEY  
 

 
FLZ067-068-071>074-080500-  
SOUTHEAST FLORIDA  
 
CITY SKY/WX TMP DP RH WIND PRES REMARKS
 
W PALM BEACH MOCLDY 71 61 70 E15 30.27R  
POMPANO BEACH MOCLDY 74 61 63 E14 30.24S  
FT LAUDER-EXEC PTCLDY 74 63 68 E9 30.24S  
FT LAUDERDALE MOCLDY 74 61 63 E15 30.23S  
PEMBROKE PINES PTCLDY 73 61 65 E12 30.25S  
OPA LOCKA MOCLDY 73 61 65 E10 30.24S  
MIAMI MOCLDY 74 61 63 E8 30.24S  
WEST KENDALL PTCLDY 70 58 65 SE7 30.23F  
HOMESTEAD CLEAR 70 59 68 E6 30.23F  
 
STATION/POSITION
 
 
LAKE WORTH  
SETTLEMENT POINT  
 

 
 
 
CLICK HERE TO GO TO PREVIOUS BULLETINS.

The Nexlab FL Page Main Text Page